PBD535 ULLI-UMKK

Flight info

Callsign PBD535
Flight time 1h 20m
Altitude 36000
Route N0450F360 UTETA M60 ATLUM T561 LEDUN DCT ARANS DCT PIDIN DCT PISIM DCT PIRUX DCT PIVAX DCT GARSO DCT AGONA N5 TURIP
Aircraft B738/M-VGDW/C

Departure

Time 2026-05-04 16:06
Airport Pulkovo Airport (ULLI)

Arrival

Time 2026-05-04 17:26
Airport Khrabrovo Airport (UMKK)
Time Latitude Longitude Altitude Speed Heading
2026-05-04 15:51 59.80208 30.26878 84 ft 0 kts 107°
2026-05-04 15:56 59.80212 30.26854 84 ft 2 kts 106°
2026-05-04 15:56 59.80216 30.26823 83 ft 2 kts 107°
2026-05-04 15:56 59.80219 30.26790 86 ft 2 kts 62°
2026-05-04 15:56 59.80207 30.26769 85 ft 2 kts 21°
2026-05-04 15:57 59.80196 30.26761 86 ft 1 kts 16°
2026-05-04 15:57 59.80195 30.26760 86 ft 0 kts 15°
2026-05-04 15:59 59.80200 30.26763 86 ft 2 kts 16°
2026-05-04 15:59 59.80220 30.26774 86 ft 5 kts 15°
2026-05-04 16:00 59.80265 30.26799 82 ft 9 kts 15°
2026-05-04 16:00 59.80335 30.26839 81 ft 12 kts 15°
2026-05-04 16:00 59.80384 30.26922 83 ft 11 kts 89°
2026-05-04 16:00 59.80362 30.27082 82 ft 13 kts 106°
2026-05-04 16:01 59.80332 30.27280 84 ft 16 kts 107°
2026-05-04 16:01 59.80297 30.27515 82 ft 19 kts 105°
2026-05-04 16:01 59.80260 30.27767 81 ft 18 kts 107°
2026-05-04 16:01 59.80222 30.28019 76 ft 20 kts 107°
2026-05-04 16:02 59.80178 30.28306 79 ft 23 kts 107°
2026-05-04 16:02 59.80139 30.28574 75 ft 20 kts 107°
2026-05-04 16:02 59.80058 30.29116 78 ft 20 kts 107°
2026-05-04 16:03 59.80018 30.29381 77 ft 20 kts 107°
2026-05-04 16:03 59.79978 30.29644 75 ft 20 kts 106°
2026-05-04 16:03 59.79941 30.29906 67 ft 19 kts 106°
2026-05-04 16:03 59.79989 30.30135 73 ft 17 kts 46°
2026-05-04 16:04 59.80083 30.30301 75 ft 19 kts 21°
2026-05-04 16:04 59.80125 30.30229 76 ft 0 kts 285°
2026-05-04 16:05 59.80126 30.30219 76 ft 4 kts 285°
2026-05-04 16:05 59.80148 30.30063 71 ft 31 kts 287°
2026-05-04 16:05 59.80545 30.27311 84 ft 168 kts 282°
2026-05-04 16:06 59.80877 30.24820 463 ft 197 kts 285°
2026-05-04 16:06 59.82023 30.18030 2339 ft 212 kts 278°
2026-05-04 16:07 59.82579 30.14184 3119 ft 227 kts 278°
2026-05-04 16:07 59.83811 30.05372 6016 ft 221 kts 280°
2026-05-04 16:08 59.84235 30.02428 6800 ft 224 kts 280°
2026-05-04 16:08 59.84421 29.93262 9133 ft 227 kts 256°
2026-05-04 16:09 59.83668 29.86896 10109 ft 256 kts 256°
2026-05-04 16:09 59.82769 29.79394 10463 ft 302 kts 256°
2026-05-04 16:10 59.81774 29.70916 11477 ft 321 kts 256°
2026-05-04 16:11 59.80231 29.57772 13617 ft 331 kts 256°
2026-05-04 16:11 59.79701 29.53295 14221 ft 335 kts 256°
2026-05-04 16:12 59.78709 29.44958 15404 ft 339 kts 256°
2026-05-04 16:12 59.77044 29.31072 17252 ft 348 kts 256°
2026-05-04 16:13 59.75903 29.21632 18358 ft 355 kts 255°
2026-05-04 16:13 59.74741 29.12055 19428 ft 359 kts 255°
2026-05-04 16:14 59.73415 29.02435 20453 ft 364 kts 245°
2026-05-04 16:14 59.70398 28.94295 21457 ft 370 kts 232°
2026-05-04 16:15 59.65317 28.82537 22825 ft 379 kts 232°
2026-05-04 16:16 59.61879 28.74535 23626 ft 384 kts 232°
2026-05-04 16:16 59.56666 28.62414 24787 ft 388 kts 232°
2026-05-04 16:17 59.53174 28.54324 25514 ft 391 kts 232°
2026-05-04 16:18 59.47841 28.42020 26515 ft 395 kts 231°
2026-05-04 16:18 59.46050 28.37903 26768 ft 397 kts 231°
2026-05-04 16:19 59.40623 28.25474 27468 ft 401 kts 231°
2026-05-04 16:19 59.36972 28.17149 27949 ft 403 kts 231°
2026-05-04 16:20 59.31464 28.04649 28739 ft 403 kts 231°
2026-05-04 16:20 59.27803 27.96379 29439 ft 400 kts 231°
2026-05-04 16:21 59.22315 27.84031 30149 ft 400 kts 231°
2026-05-04 16:22 59.18659 27.75844 30602 ft 400 kts 231°
2026-05-04 16:22 59.13165 27.63593 31289 ft 399 kts 231°
2026-05-04 16:23 59.07660 27.51384 31931 ft 400 kts 231°
2026-05-04 16:24 59.00339 27.35247 32825 ft 399 kts 231°
2026-05-04 16:25 58.96671 27.27203 33265 ft 399 kts 231°
2026-05-04 16:26 58.89296 27.11115 33972 ft 400 kts 231°
2026-05-04 16:26 58.83728 26.99043 34420 ft 402 kts 231°
2026-05-04 16:27 58.79988 26.90969 34669 ft 404 kts 231°
2026-05-04 16:28 58.74351 26.78854 35009 ft 408 kts 231°
2026-05-04 16:28 58.68653 26.66673 35443 ft 409 kts 231°
2026-05-04 16:29 58.60995 26.50402 35681 ft 412 kts 231°
2026-05-04 16:31 58.52017 26.31476 35697 ft 411 kts 231°
2026-05-04 16:32 58.40453 26.07320 35714 ft 411 kts 231°
2026-05-04 16:33 58.32744 25.91357 35723 ft 411 kts 231°
2026-05-04 16:34 58.26924 25.79379 35726 ft 411 kts 231°
2026-05-04 16:35 58.15244 25.55525 35743 ft 412 kts 230°
2026-05-04 16:36 58.09345 25.43572 35750 ft 412 kts 230°
2026-05-04 16:37 58.03476 25.31742 35760 ft 413 kts 230°
2026-05-04 16:38 57.95585 25.15930 35765 ft 414 kts 230°
2026-05-04 16:39 57.85725 24.96327 35778 ft 414 kts 230°
2026-05-04 16:40 57.77781 24.80653 35791 ft 414 kts 230°
2026-05-04 16:41 57.67856 24.61219 35797 ft 414 kts 230°
2026-05-04 16:43 57.57866 24.41824 35793 ft 414 kts 230°
2026-05-04 16:43 57.51857 24.30236 35807 ft 414 kts 230°
2026-05-04 16:45 57.39822 24.07203 35793 ft 415 kts 230°
2026-05-04 16:46 57.29722 23.88052 35801 ft 416 kts 230°
2026-05-04 16:47 57.21643 23.72845 35801 ft 416 kts 230°
2026-05-04 16:48 57.13498 23.57619 35807 ft 417 kts 229°
2026-05-04 16:49 57.05312 23.42416 35818 ft 418 kts 229°
2026-05-04 16:50 56.97116 23.27296 35821 ft 419 kts 229°
2026-05-04 16:51 56.90924 23.15940 35829 ft 420 kts 229°
2026-05-04 16:52 56.82643 23.00838 35835 ft 421 kts 229°
2026-05-04 16:53 56.76415 22.89547 35829 ft 421 kts 229°
2026-05-04 16:54 56.68101 22.74561 35846 ft 422 kts 229°
2026-05-04 16:55 56.55545 22.52114 35857 ft 422 kts 229°
2026-05-04 16:56 56.51310 22.44586 35049 ft 432 kts 229°
2026-05-04 16:56 56.44916 22.33281 33041 ft 430 kts 228°
2026-05-04 16:57 56.42779 22.29515 32340 ft 429 kts 228°
2026-05-04 16:57 56.38499 22.21990 31037 ft 426 kts 228°
2026-05-04 16:58 56.32225 22.11009 29531 ft 413 kts 227°
2026-05-04 16:58 56.30176 22.07433 29026 ft 407 kts 227°
2026-05-04 16:59 56.26150 22.00422 28051 ft 398 kts 227°
2026-05-04 17:00 56.18316 21.86837 26118 ft 385 kts 227°
2026-05-04 17:00 56.12581 21.76942 24734 ft 378 kts 227°
2026-05-04 17:01 56.08801 21.70446 23819 ft 374 kts 226°
2026-05-04 17:01 56.05074 21.64057 22818 ft 372 kts 226°
2026-05-04 17:02 56.01356 21.57705 21888 ft 366 kts 226°
2026-05-04 17:02 55.97694 21.51464 20981 ft 361 kts 226°
2026-05-04 17:03 55.95879 21.48378 20523 ft 359 kts 226°
2026-05-04 17:03 55.94071 21.45307 20075 ft 357 kts 226°
2026-05-04 17:03 55.90497 21.39249 19217 ft 353 kts 226°
2026-05-04 17:04 55.86954 21.33260 18359 ft 349 kts 226°
2026-05-04 17:04 55.83463 21.27372 17422 ft 346 kts 226°
2026-05-04 17:05 55.79989 21.21530 16548 ft 341 kts 226°
2026-05-04 17:05 55.76566 21.15790 15695 ft 336 kts 226°
2026-05-04 17:06 55.73180 21.10125 14854 ft 332 kts 226°
2026-05-04 17:06 55.71505 21.07326 14443 ft 331 kts 226°
2026-05-04 17:07 55.68161 21.01751 13607 ft 328 kts 226°
2026-05-04 17:07 55.67065 20.99927 13301 ft 327 kts 226°
2026-05-04 17:07 55.64855 20.96253 12712 ft 324 kts 226°
2026-05-04 17:07 55.63217 20.93535 12299 ft 322 kts 226°
2026-05-04 17:08 55.61608 20.90868 11887 ft 320 kts 226°
2026-05-04 17:08 55.58380 20.85525 11056 ft 316 kts 226°
2026-05-04 17:08 55.56783 20.82887 10671 ft 313 kts 226°
2026-05-04 17:09 55.55218 20.80307 10565 ft 302 kts 226°
2026-05-04 17:09 55.53705 20.77814 10426 ft 293 kts 226°
2026-05-04 17:09 55.52240 20.75403 10303 ft 284 kts 227°
2026-05-04 17:10 55.49437 20.70794 10076 ft 267 kts 227°
2026-05-04 17:10 55.45510 20.64341 9524 ft 252 kts 227°
2026-05-04 17:11 55.44228 20.62241 9249 ft 251 kts 227°
2026-05-04 17:11 55.42953 20.60157 9030 ft 248 kts 226°
2026-05-04 17:11 55.40364 20.56199 8473 ft 251 kts 212°
2026-05-04 17:12 55.38638 20.55442 8157 ft 263 kts 186°
2026-05-04 17:12 55.35175 20.57725 7611 ft 277 kts 150°
2026-05-04 17:13 55.31473 20.62361 6947 ft 278 kts 149°
2026-05-04 17:14 55.27539 20.67316 6256 ft 269 kts 149°
2026-05-04 17:14 55.26024 20.69215 5974 ft 265 kts 149°
2026-05-04 17:14 55.23066 20.72905 5451 ft 256 kts 149°
2026-05-04 17:15 55.21628 20.74692 5210 ft 252 kts 149°
2026-05-04 17:15 55.18822 20.78172 4731 ft 245 kts 149°
2026-05-04 17:16 55.16550 20.80983 4363 ft 233 kts 150°
2026-05-04 17:16 55.12824 20.85590 3847 ft 205 kts 150°
2026-05-04 17:17 55.11670 20.87010 3788 ft 200 kts 150°
2026-05-04 17:17 55.08245 20.91218 3472 ft 203 kts 150°
2026-05-04 17:18 55.07075 20.92655 3267 ft 206 kts 150°
2026-05-04 17:18 55.04780 20.95475 2818 ft 197 kts 150°
2026-05-04 17:19 55.02585 20.98168 2414 ft 184 kts 150°
2026-05-04 17:19 55.00432 21.00066 2062 ft 167 kts 191°
2026-05-04 17:20 54.99002 20.97584 2035 ft 144 kts 242°
2026-05-04 17:20 54.98147 20.94575 2039 ft 137 kts 244°
2026-05-04 17:20 54.97743 20.93061 2039 ft 138 kts 244°
2026-05-04 17:21 54.96954 20.90034 1904 ft 138 kts 245°
2026-05-04 17:21 54.96171 20.86998 1751 ft 138 kts 245°
2026-05-04 17:22 54.95781 20.85488 1749 ft 136 kts 245°
2026-05-04 17:22 54.95391 20.83974 1738 ft 137 kts 245°
2026-05-04 17:23 54.94240 20.79447 1744 ft 137 kts 245°
2026-05-04 17:23 54.93849 20.77925 1748 ft 138 kts 245°
2026-05-04 17:23 54.93059 20.74882 1644 ft 138 kts 245°
2026-05-04 17:24 54.92665 20.73365 1464 ft 139 kts 245°
2026-05-04 17:24 54.91511 20.68704 896 ft 145 kts 246°
2026-05-04 17:25 54.91079 20.67118 696 ft 146 kts 246°
2026-05-04 17:25 54.90225 20.63949 314 ft 142 kts 247°
2026-05-04 17:26 54.89419 20.60825 21 ft 132 kts 244°
2026-05-04 17:26 54.88911 20.59089 24 ft 18 kts 218°
2026-05-04 17:27 54.88722 20.58939 26 ft 12 kts 229°
2026-05-04 17:27 54.88624 20.58766 29 ft 11 kts 153°
2026-05-04 17:28 54.88529 20.58827 27 ft 1 kts 192°
2026-05-04 17:29 54.88504 20.58743 27 ft 8 kts 232°
2026-05-04 17:29 54.88408 20.58708 28 ft 0 kts 190°
2026-05-04 17:33 54.93186 20.75364 1730 ft 138 kts 245°
2026-05-04 17:33 54.92792 20.73843 1625 ft 137 kts 245°
2026-05-04 17:34 54.91748 20.69642 1166 ft 139 kts 248°
2026-05-04 17:34 54.91355 20.68063 924 ft 145 kts 246°
2026-05-04 17:35 54.90070 20.63299 335 ft 143 kts 249°
2026-05-04 17:35 54.89260 20.60156 11 ft 137 kts 246°
2026-05-04 17:35 54.88944 20.58941 11 ft 81 kts 245°